Location: Esp�n
(42.4593°N, 0.2047°W)
Time: 20:36:11
(UTC+00:00)

Cosmos 1825 Rocket - Pass Details

Date: 07 June 2020
Orbit: 605 x 630 km, 82.5° (Epoch: 13 July)

Event Time Altitude Azimuth Distance (km) Brightness Sun altitude
Exits shadow 01:08:39 63° 264° (W) 684 3.6 -22.8°
Maximum altitude 01:08:50 64° 279° (W) 679 3.6 -22.8°
Drops below altitude 10° 01:13:11 10° 2° (N) 1,975 7.2 -22.6°
Sets 01:15:26 0° 5° (N) 2,888 8.4 -22.5°
